Meath Environmental Platform

Observations for Trim Market St

Time AQI Temp °C Hum % Pres Pa CO μg/m³ H₂S μg/m³ NO μg/m³ NO₂ μg/m³ O₃ μg/m³ SO₂ μg/m³ PM1 μg/m³ PM2.5 μg/m³ PM10 μg/m³
Tuesday 18 August 2026
21:29 2 15.7 82 2,147,483,647 0.23 0 2.26 12.14 52.03 0 1.43 2.49 5.86
21:28 2 15.7 82 2,147,483,647 0.26 0 2.27 12.58 56.5 0 1.43 3.43 8.64
21:27 2 15.7 82 2,147,483,647 0.26 0 2.26 12.82 53.39 0 2.14 3.44 8.09
21:25 2 15.7 82 2,147,483,647 0.25 0 2.22 9.13 58.97 0 2.14 3.44 6.97
21:22 2 15.7 82 2,147,483,647 0.3 0 2.22 12.1 53.61 0 2.85 4.38 9.76
21:21 2 15.8 82 2,147,483,647 0.41 0 2.2 11.03 54.19 0 1.43 2.04 5.3
21:19 2 15.7 82 2,147,483,647 0.37 0 2.22 12.01 54.88 0 2.14 3.92 7.53
21:16 2 15.8 81 2,147,483,647 0.24 0 2.2 12.01 58.88 0 2.14 3.46 6.41
21:07 2 15.9 81 2,147,483,647 0.23 0 2.2 9.97 56.78 0 1.43 3.94 7.53
21:06 2 15.9 81 2,147,483,647 0.23 0 2.18 11.57 55.45 0 2.14 3.48 8.65
21:05 2 15.9 81 2,147,483,647 0.25 0 2.18 14.4 56.42 0 2.14 4.42 8.09
21:04 2 15.9 81 2,147,483,647 0.28 0 2.22 10.65 55.88 0 2.14 3.48 7.53
21:03 2 15.9 81 2,147,483,647 0.32 0 2.23 13.27 58.65 0 2.85 4.89 8.09
21:02 2 15.9 81 2,147,483,647 0.45 0 2.2 15.24 55.5 0 2.85 4.42 9.22
21:01 2 15.9 81 2,147,483,647 0.55 0 2.18 12.29 56.11 0 2.85 3.95 7.53
21:00 2 15.9 81 2,147,483,647 0.53 0 2.18 11.89 57.86 0 2.85 3.95 6.97
20:59 2 15.9 81 2,147,483,647 0.55 0 2.18 17.57 59.48 0 3.56 4.43 7.53
20:58 2 15.9 81 2,147,483,647 0.55 0 2.18 11.93 57.89 0 2.14 3.49 9.22
20:57 2 15.9 81 2,147,483,647 0.56 0 2.2 11.14 58.41 0 2.14 3.49 6.41
20:56 2 15.9 81 2,147,483,647 0.4 0 2.23 10.02 59.48 0 2.85 3.96 8.09